This is the latest recevied weather packets stored in our database for station/object CA3SQH-10. If no packets are shown the sender has not sent any weather packets the latest 10 day(s).
| Time | Temp. | Humidity | Pressure | Rain* | Wind** | Luminosity | Snow |
|---|---|---|---|---|---|---|---|
| 1777763099 | 18.33° C | 51% | 938.4 hPa | - | - | - | - |
| 1777762199 | 18.89° C | 50% | 938.2 hPa | - | - | - | - |
| 1777761298 | 19.44° C | 48% | 937.9 hPa | - | - | - | - |
| 1777760398 | 20° C | 46% | 938 hPa | - | - | - | - |
| 1777759497 | 20.56° C | 44% | 937.9 hPa | - | - | - | - |
| 1777758698 | 21.11° C | 44% | 937.7 hPa | - | - | - | - |
| 1777757798 | 21.67° C | 42% | 937.7 hPa | - | - | - | - |
| 1777756898 | 21.67° C | 41% | 937.5 hPa | - | - | - | - |
| 1777755998 | 22.22° C | 40% | 937.5 hPa | - | - | - | - |
| 1777755098 | 22.78° C | 39% | 937.3 hPa | - | - | - | - |
| 1777754197 | 22.78° C | 36% | 937.3 hPa | - | - | - | - |
| 1777753297 | 23.33° C | 36% | 937.3 hPa | - | - | - | - |
| 1777752397 | 23.33° C | 35% | 937.5 hPa | - | - | - | - |
| 1777751497 | 23.89° C | 35% | 937.5 hPa | - | - | - | - |
| 1777750597 | 23.89° C | 36% | 937.4 hPa | - | - | - | - |
| 1777749696 | 23.89° C | 36% | 937.3 hPa | - | - | - | - |
| 1777748796 | 23.89° C | 36% | 937.3 hPa | - | - | - | - |
| 1777747896 | 24.44° C | 36% | 937.2 hPa | - | - | - | - |
| 1777746996 | 23.89° C | 36% | 937.2 hPa | - | - | - | - |
| 1777746095 | 24.44° C | 37% | 937.2 hPa | - | - | - | - |
| 1777745195 | 23.89° C | 38% | 937.2 hPa | - | - | - | - |
| 1777744295 | 23.89° C | 37% | 937.3 hPa | - | - | - | - |
| 1777743395 | 23.33° C | 36% | 937.4 hPa | - | - | - | - |
| 1777742495 | 22.78° C | 36% | 937.5 hPa | - | - | - | - |
| 1777741594 | 22.78° C | 44% | 937.6 hPa | - | - | - | - |
* Rain since midnight (hover to see other rain measurements)
** Current wind speed in m/s (hover to see current wind gust speed)